STARLINK-1863 (47150 NORAD) Tracking and Keplerian Element Data

This shows tracking and keplerian element data for the satellite.

Feedback or suggestion? Click here.




ElementValue
Catalog47150
NameSTARLINK-1863
Epoch Orbit177
Epoch Day15.91667824
Epoch Year2021
RAAN98.5843
Inclination53.0549
Eccentricity0.0001512
Argument of Perigee48.3328
Mean Anonmoly341.4815
Mean Motion15.62782274
Decay Rate-0.00017763
L11 47150U 20088AE 21015.91667824 -.00017763 00000-0 -18836-3 0 9992
L22 47150 53.0549 98.5843 0001512 48.3328 341.4815 15.62782274 1774

Live tracking and technical data element details for STARLINK-1863 (NORAD 47150). STARLINK-1863 can be tracked NOW for your location showing map with azimuth and elevation plus other details from your city location.

Track the satellite on the map from your city or location and see movement details for azimuth, elevation, latitude, longitude, range, height, and movement on the map or in text.







IsCatalogInMostPopularTable: catalog: 47150, numindb: 17
Update: records affected: 1



GetName: 47150 STARLINK-1863

Hit Count: updated at: Sun, 17 Jan 2021 09:33:06 GMT